• In Czech Republic
  • List of Countries
  • For 7 days
  • Water Temperature
  • Satellite Maps
  • Weather Map
  • Weather Widgets
  • user-avatar
    Login

    Hourly Weather Ilkovo

    Today, 23 September, Sunday

    Time Temperature Precipitation Wind Pressure Humidity
    00:00 +19°C° 0 mm 5 mps 736 mmHg 54%
    01:00 +17°C° 0 mm 5 mps 736 mmHg 55%
    02:00 +18°C° 0 mm 4 mps 736 mmHg 58%
    03:00 +16°C° 0.2 mm 5 mps 736 mmHg 64%
    04:00 +15°C° 0.2 mm 5 mps 736 mmHg 71%
    05:00 +13°C° 0.2 mm 5 mps 736 mmHg 78%
    06:00 +12°C° 0.8 mm 5 mps 736 mmHg 81%
    07:00 +10°C° 0.8 mm 6 mps 736 mmHg 84%
    08:00 +8°C° 0 mm 6 mps 736 mmHg 86%
    09:00 +8°C° 0.4 mm 5 mps 737 mmHg 84%
    10:00 +9°C° 0.4 mm 5 mps 737 mmHg 82%
    11:00 +10°C° 0.4 mm 4 mps 738 mmHg 81%
    12:00 +10°C° 0 mm 4 mps 738 mmHg 78%
    13:00 +11°C° 0 mm 4 mps 738 mmHg 76%
    14:00 +12°C° 0 mm 3 mps 739 mmHg 73%
    15:00 +12°C° 0 mm 3 mps 738 mmHg 74%
    16:00 +11°C° 0 mm 3 mps 738 mmHg 75%
    17:00 +12°C° 0 mm 2 mps 738 mmHg 75%
    18:00 +10°C° 0 mm 3 mps 738 mmHg 78%
    19:00 +10°C° 0 mm 3 mps 738 mmHg 81%
    20:00 +9°C° 0 mm 3 mps 738 mmHg 84%
    21:00 +9°C° 0 mm 3 mps 738 mmHg 85%
    22:00 +8°C° 0 mm 3 mps 738 mmHg 87%
    23:00 +8°C° 0 mm 3 mps 738 mmHg 88%

    Tomorrow, 24 September, Monday

    Time Temperature Precipitation Wind Pressure Humidity
    00:00 +8°C° 0 mm 3 mps 738 mmHg 88%
    01:00 +7°C° 0 mm 3 mps 738 mmHg 89%
    02:00 +7°C° 0 mm 3 mps 738 mmHg 90%
    03:00 +7°C° 0 mm 3 mps 738 mmHg 88%
    04:00 +7°C° 0 mm 3 mps 738 mmHg 86%
    05:00 +7°C° 0 mm 3 mps 738 mmHg 84%
    06:00 +7°C° 0 mm 4 mps 738 mmHg 80%
    07:00 +8°C° 0 mm 4 mps 737 mmHg 76%
    08:00 +9°C° 0 mm 5 mps 737 mmHg 72%
    09:00 +9°C° 0.3 mm 6 mps 737 mmHg 73%
    10:00 +9°C° 0.3 mm 6 mps 736 mmHg 74%
    11:00 +9°C° 0.3 mm 7 mps 736 mmHg 75%
    12:00 +9°C° 0.8 mm 7 mps 735 mmHg 78%
    13:00 +9°C° 0.8 mm 8 mps 734 mmHg 81%
    14:00 +8°C° 0.8 mm 9 mps 733 mmHg 84%
    15:00 +8°C° 1.6 mm 9 mps 732 mmHg 85%
    16:00 +8°C° 1.6 mm 9 mps 731 mmHg 86%
    17:00 +8°C° 1.6 mm 9 mps 729 mmHg 87%
    18:00 +10°C° 0.6 mm 9 mps 729 mmHg 87%
    19:00 +10°C° 0.6 mm 9 mps 728 mmHg 86%
    20:00 +10°C° 0.6 mm 9 mps 728 mmHg 86%
    21:00 +9°C° 0 mm 8 mps 728 mmHg 86%
    22:00 +7°C° 0 mm 8 mps 728 mmHg 85%
    23:00 +7°C° 0 mm 8 mps 728 mmHg 84%

    Day after tomorrow, 25 September, Tuesday

    Time Temperature Precipitation Wind Pressure Humidity
    00:00 +6°C° 0 mm 8 mps 728 mmHg 84%
    01:00 +6°C° 0 mm 8 mps 728 mmHg 84%
    02:00 +6°C° 0 mm 8 mps 729 mmHg 83%
    03:00 +6°C° 0 mm 8 mps 729 mmHg 83%
    04:00 +6°C° 0 mm 8 mps 729 mmHg 82%
    05:00 +6°C° 0 mm 8 mps 730 mmHg 82%
    06:00 +6°C° 0 mm 8 mps 730 mmHg 82%
    07:00 +6°C° 0 mm 8 mps 731 mmHg 81%
    08:00 +6°C° 0 mm 8 mps 731 mmHg 81%
    09:00 +6°C° 0.2 mm 8 mps 732 mmHg 81%
    10:00 +6°C° 0.2 mm 8 mps 733 mmHg 80%
    11:00 +6°C° 0.2 mm 8 mps 733 mmHg 79%
    12:00 +6°C° 0.1 mm 8 mps 734 mmHg 78%
    13:00 +6°C° 0.1 mm 7 mps 735 mmHg 77%
    14:00 +6°C° 0.1 mm 7 mps 735 mmHg 76%
    15:00 +6°C° 0 mm 7 mps 736 mmHg 76%
    16:00 +5°C° 0 mm 6 mps 737 mmHg 76%
    17:00 +5°C° 0 mm 6 mps 737 mmHg 76%
    18:00 +5°C° 0 mm 6 mps 738 mmHg 76%
    19:00 +6°C° 0 mm 5 mps 739 mmHg 75%
    20:00 +6°C° 0 mm 5 mps 740 mmHg 75%
    21:00 +5°C° 0 mm 5 mps 740 mmHg 76%
    22:00 +5°C° 0 mm 5 mps 740 mmHg 78%
    23:00 +5°C° 0 mm 4 mps 741 mmHg 80%

    26 September, Wednesday

    Time Temperature Precipitation Wind Pressure Humidity
    00:00 +4°C° 0 mm 4 mps 741 mmHg 81%
    01:00 +3°C° 0 mm 4 mps 742 mmHg 82%
    02:00 +3°C° 0 mm 4 mps 743 mmHg 84%
    03:00 +1°C° 0 mm 4 mps 743 mmHg 84%
    04:00 +1°C° 0 mm 4 mps 744 mmHg 84%
    05:00 +1°C° 0 mm 4 mps 744 mmHg 84%
    06:00 +1°C° 0 mm 4 mps 745 mmHg 79%
    07:00 +2°C° 0 mm 5 mps 746 mmHg 74%
    08:00 +3°C° 0 mm 5 mps 747 mmHg 70%
    09:00 +5°C° 0 mm 5 mps 747 mmHg 63%
    10:00 +6°C° 0 mm 5 mps 747 mmHg 57%
    11:00 +7°C° 0 mm 4 mps 747 mmHg 51%
    12:00 +8°C° 0 mm 4 mps 747 mmHg 49%
    13:00 +8°C° 0 mm 4 mps 747 mmHg 48%
    14:00 +8°C° 0 mm 4 mps 747 mmHg 47%
    15:00 +8°C° 0 mm 4 mps 747 mmHg 52%
    16:00 +8°C° 0 mm 3 mps 747 mmHg 57%
    17:00 +7°C° 0 mm 2 mps 747 mmHg 62%
    18:00 +5°C° 0 mm 3 mps 747 mmHg 65%
    19:00 +5°C° 0 mm 3 mps 747 mmHg 68%
    20:00 +4°C° 0 mm 4 mps 747 mmHg 71%
    21:00 +4°C° 0 mm 4 mps 746 mmHg 72%
    22:00 +3°C° 0 mm 5 mps 746 mmHg 73%
    23:00 +3°C° 0 mm 5 mps 745 mmHg 74%

    27 September, Thursday

    Time Temperature Precipitation Wind Pressure Humidity
    00:00 +4°C° 0 mm 6 mps 744 mmHg 71%
    01:00 +4°C° 0 mm 6 mps 744 mmHg 69%
    02:00 +4°C° 0 mm 7 mps 743 mmHg 66%
    03:00 +4°C° 0.2 mm 7 mps 742 mmHg 67%
    04:00 +4°C° 0.2 mm 8 mps 741 mmHg 69%
    05:00 +4°C° 0.2 mm 8 mps 740 mmHg 71%
    06:00 +3°C° 0.6 mm 9 mps 740 mmHg 73%
    07:00 +3°C° 0.6 mm 9 mps 739 mmHg 76%
    08:00 +3°C° 0.6 mm 9 mps 739 mmHg 78%
    09:00 +5°C° 0.6 mm 9 mps 739 mmHg 79%
    10:00 +5°C° 0.6 mm 9 mps 738 mmHg 81%
    11:00 +5°C° 0.6 mm 9 mps 738 mmHg 82%
    12:00 +5°C° 0.3 mm 9 mps 738 mmHg 83%
    13:00 +6°C° 0.3 mm 8 mps 738 mmHg 84%
    14:00 +6°C° 0.3 mm 8 mps 738 mmHg 85%
    15:00 +6°C° 0.2 mm 8 mps 738 mmHg 87%
    16:00 +6°C° 0.2 mm 7 mps 738 mmHg 88%
    17:00 +8°C° 0.2 mm 7 mps 738 mmHg 89%
    18:00 +8°C° 0.1 mm 6 mps 738 mmHg 90%
    19:00 +8°C° 0.1 mm 6 mps 738 mmHg 91%
    20:00 +8°C° 0.1 mm 6 mps 739 mmHg 91%
    21:00 +8°C° 0 mm 5 mps 739 mmHg 92%
    22:00 +8°C° 0 mm 5 mps 739 mmHg 93%
    23:00 +8°C° 0 mm 4 mps 739 mmHg 94%

    28 September, Friday

    Time Temperature Precipitation Wind Pressure Humidity
    00:00 +8°C° 0 mm 4 mps 739 mmHg 95%
    01:00 +8°C° 0 mm 4 mps 739 mmHg 95%
    02:00 +8°C° 0 mm 4 mps 739 mmHg 96%
    03:00 +9°C° 0 mm 5 mps 739 mmHg 95%
    04:00 +9°C° 0 mm 5 mps 738 mmHg 94%
    05:00 +9°C° 0 mm 5 mps 738 mmHg 94%
    06:00 +9°C° 0 mm 6 mps 737 mmHg 92%
    07:00 +10°C° 0 mm 7 mps 737 mmHg 91%
    08:00 +10°C° 0 mm 8 mps 737 mmHg 89%
    09:00 +11°C° 0 mm 8 mps 736 mmHg 87%
    10:00 +11°C° 0 mm 9 mps 736 mmHg 85%
    11:00 +12°C° 0 mm 9 mps 735 mmHg 83%
    12:00 +13°C° 0.1 mm 9 mps 735 mmHg 81%
    13:00 +15°C° 0.1 mm 9 mps 735 mmHg 78%
    14:00 +16°C° 0.1 mm 9 mps 735 mmHg 75%
    15:00 +13°C° 0.3 mm 8 mps 736 mmHg 76%
    16:00 +12°C° 0.3 mm 7 mps 736 mmHg 77%
    17:00 +10°C° 0.3 mm 6 mps 737 mmHg 78%
    18:00 +9°C° 0 mm 5 mps 738 mmHg 81%
    19:00 +8°C° 0 mm 4 mps 739 mmHg 85%
    20:00 +7°C° 0 mm 3 mps 740 mmHg 88%
    21:00 +7°C° 0 mm 3 mps 740 mmHg 89%
    22:00 +6°C° 0 mm 2 mps 740 mmHg 90%
    23:00 +6°C° 0 mm 2 mps 741 mmHg 91%
    Show more